FW9607 Weather Reports


Display with metric or nautical units.
time (UTC)temp
F
wind
direction
speed
MPH
gust
MPH
rain 1hr
in
rain 24hr
in
rain mn
in
humidity
%
barometer
mb
20260508025113 72 40 3.0 6.0 0.00 0.01 0.01 82 1011.5
20260508024613 72 64 3.0 7.0 0.00 0.01 0.01 82 1011.5
20260508023613 72 19 3.0 7.0 0.00 0.01 0.01 81 1011.8
20260508023111 72 31 3.0 7.0 0.00 0.01 0.01 81 1011.9
20260508022610 73 56 3.0 7.0 0.00 0.01 0.01 81 1012.0
20260508022109 73 66 3.0 6.0 0.00 0.01 0.01 81 1012.3
20260508021610 73 27 3.0 6.0 0.00 0.01 0.01 81 1012.2
20260508021110 73 77 2.0 5.0 0.00 0.01 0.01 81 1012.2
20260508020610 73 44 2.0 5.0 0.00 0.01 0.01 81 1012.2
20260508020115 73 45 3.0 7.0 0.00 0.01 0.01 81 1011.8
20260508015601 73 327 3.0 7.0 0.00 0.01 0.01 81 1011.7
20260508014047 73 53 3.0 6.0 0.00 0.01 0.01 81 1011.9
20260508013045 73 45 2.0 5.0 0.00 0.01 0.01 81 1011.7
20260508012045 73 357 3.0 8.0 0.00 0.01 0.01 80 1011.8
20260508011546 73 55 3.0 6.0 0.00 0.01 0.01 80 1011.6
20260508011045 73 44 2.0 6.0 0.00 0.01 0.01 80 1011.7
20260508010545 73 27 2.0 6.0 0.00 0.01 0.01 80 1011.7
20260508010045 73 55 3.0 6.0 0.00 0.01 0.01 80 1011.4
20260508005545 73 42 3.0 6.0 0.00 0.01 0.01 80 1011.3
20260508005043 73 57 3.0 7.0 0.00 0.01 0.01 80 1011.2
20260508004542 73 59 3.0 7.0 0.00 0.01 0.01 80 1011.2
20260508004039 73 63 3.0 7.0 0.00 0.01 0.01 80 1011.1
20260508003539 73 30 3.0 6.0 0.00 0.01 0.01 80 1011.3
20260508003040 74 59 2.0 6.0 0.00 0.01 0.01 80 1011.4
20260508002540 74 51 2.0 5.0 0.00 0.01 0.01 80 1011.5
20260508002040 73 44 3.0 7.0 0.00 0.01 0.01 80 1011.4
20260508001540 73 358 3.0 8.0 0.00 0.01 0.01 80 1011.3
20260508001040 74 29 3.0 8.0 0.00 0.01 0.01 80 1011.4
20260508000541 74 69 4.0 7.0 0.00 0.01 0.01 80 1011.2
20260507235540 74 70 3.0 8.0 0.00 0.01 0.01 80 1011.4
20260507235048 74 48 3.0 8.0 0.00 0.01 0.01 80 1011.3
20260507234541 74 38 3.0 7.0 0.00 0.01 0.01 80 1011.2
20260507233540 74 29 4.0 8.0 0.00 0.01 0.01 80 1011.1
20260507232538 74 67 4.0 9.0 0.00 0.01 0.01 80 1011.1
20260507232038 74 34 3.0 9.0 0.00 0.01 0.01 80 1011.3
20260507231538 74 302 3.0 8.0 0.00 0.01 0.01 80 1011.3
20260507231038 74 81 3.0 8.0 0.00 0.01 0.01 80 1011.2
20260507230538 74 57 3.0 8.0 0.00 0.01 0.01 80 1011.0
20260507230038 74 57 4.0 8.0 0.00 0.01 0.01 80 1011.0
20260507225538 74 37 4.0 8.0 0.00 0.01 0.01 79 1011.1
20260507224038 74 41 4.0 8.0 0.00 0.01 0.01 79 1011.1
20260507223538 74 24 4.0 9.0 0.00 0.01 0.01 79 1011.0
20260507223038 74 45 4.0 9.0 0.00 0.01 0.01 79 1011.0
20260507222536 74 60 3.0 8.0 0.00 0.01 0.01 79 1011.1
20260507221533 75 31 3.0 8.0 0.00 0.01 0.01 79 1011.1
20260507221034 75 12 3.0 8.0 0.00 0.01 0.01 79 1011.1
20260507220533 75 53 3.0 8.0 0.00 0.01 0.01 79 1011.1
20260507220035 75 36 3.0 7.0 0.00 0.01 0.01 79 1011.1
20260507215034 74 25 4.0 8.0 0.00 0.01 0.01 79 1011.0
20260507214533 74 53 4.0 8.0 0.00 0.01 0.01 79 1011.0
20260507214035 74 79 3.0 8.0 0.00 0.01 0.01 78 1010.9
20260507213533 74 52 4.0 8.0 0.00 0.01 0.01 79 1010.8
20260507212533 74 62 4.0 9.0 0.00 0.01 0.01 78 1010.9
20260507212048 74 80 4.0 9.0 0.00 0.01 0.01 79 1011.1
20260507211035 74 47 4.0 8.0 0.00 0.01 0.01 79 1011.2
20260507210535 73 25 4.0 8.0 0.00 0.01 0.01 80 1011.2
20260507205028 73 45 4.0 7.0 0.00 0.01 0.01 80 1011.3
20260507204527 73 70 4.0 9.0 0.00 0.01 0.01 80 1011.4
20260507204027 73 61 5.0 9.0 0.00 0.01 0.01 80 1011.5
20260507203527 73 26 5.0 8.0 0.00 0.01 0.01 80 1011.6
20260507203028 73 34 4.0 8.0 0.00 0.01 0.01 80 1011.7
20260507202528 73 32 5.0 9.0 0.00 0.01 0.01 81 1011.7
20260507202029 73 36 5.0 9.0 0.00 0.01 0.01 81 1011.7
20260507201529 73 37 4.0 7.0 0.00 0.01 0.01 81 1011.9
20260507201028 73 16 4.0 8.0 0.00 0.01 0.01 81 1012.0
20260507200028 73 45 4.0 8.0 0.00 0.01 0.01 81 1012.0
20260507195523 73 45 4.0 11.0 0.00 0.01 0.01 79 1012.0
20260507195019 73 46 4.0 11.0 0.00 0.01 0.01 80 1012.1
20260507194516 73 50 3.0 8.0 0.00 0.01 0.01 80 1012.1
20260507194018 72 12 3.0 6.0 0.00 0.01 0.01 81 1012.3
20260507193516 72 80 4.0 8.0 0.00 0.01 0.01 82 1012.3
20260507193018 71 56 4.0 8.0 0.00 0.01 0.01 83 1012.4
20260507192517 71 47 4.0 8.0 0.00 0.01 0.01 83 1012.6
20260507192018 71 43 4.0 8.0 0.00 0.01 0.01 83 1012.6
20260507191517 71 38 4.0 8.0 0.00 0.01 0.01 84 1012.8
20260507191018 71 69 4.0 9.0 0.00 0.01 0.01 84 1012.8
20260507185518 71 4 4.0 7.0 0.00 0.01 0.01 83 1012.9
20260507185017 71 8 5.0 10.0 0.00 0.01 0.01 83 1013.1
20260507184516 71 45 5.0 10.0 0.00 0.01 0.01 83 1013.0
20260507183015 71 70 5.0 11.0 0.00 0.01 0.01 83 1013.3
20260507182012 71 38 4.0 7.0 0.00 0.01 0.01 84 1013.5
20260507181511 71 30 3.0 7.0 0.00 0.01 0.01 84 1013.5
20260507181013 71 27 4.0 7.0 0.01 0.01 0.01 84 1013.5
20260507180512 70 25 4.0 7.0 0.01 0.01 0.01 85 1013.6
20260507180006 70 73 4.0 9.0 0.01 0.01 0.01 86 1013.5
20260507175506 70 52 5.0 9.0 0.01 0.01 0.01 86 1013.5
20260507175006 70 36 4.0 9.0 0.01 0.01 0.01 85 1013.5
20260507174506 70 34 4.0 9.0 0.01 0.01 0.01 85 1013.6
20260507174007 70 27 4.0 8.0 0.01 0.01 0.01 85 1013.5
20260507173507 70 69 4.0 7.0 0.01 0.01 0.01 86 1013.5
20260507171955 70 42 3.0 8.0 0.01 0.01 0.01 87 1013.7
20260507171455 71 27 4.0 8.0 0.01 0.01 0.01 85 1013.7
20260507170955 71 26 4.0 7.0 0.00 0.00 0.00 83 1013.6
20260507170450 71 57 3.0 7.0 0.00 0.00 0.00 83 1013.7
20260507165449 71 43 3.0 6.0 0.00 0.00 0.00 83 1013.8
20260507164949 71 354 3.0 8.0 0.00 0.00 0.00 83 1013.8
20260507164449 71 19 4.0 8.0 0.00 0.00 0.00 83 1013.7
20260507163949 71 12 4.0 8.0 0.00 0.00 0.00 83 1013.7
20260507163451 71 25 4.0 7.0 0.00 0.00 0.00 83 1013.6
20260507162949 71 42 3.0 5.0 0.00 0.00 0.00 83 1013.5
20260507162451 71 46 3.0 7.0 0.00 0.00 0.00 83 1013.5
20260507161949 71 39 3.0 7.0 0.00 0.00 0.00 83 1013.4
20260507161450 71 356 3.0 7.0 0.00 0.00 0.00 83 1013.3
20260507160949 71 31 3.0 7.0 0.00 0.00 0.00 83 1013.3
20260507160450 71 297 3.0 7.0 0.00 0.00 0.00 83 1013.1
20260507155950 70 52 4.0 8.0 0.00 0.00 0.00 83 1013.0
20260507155445 70 23 4.0 8.0 0.00 0.00 0.00 83 1013.1
20260507154944 70 50 4.0 7.0 0.00 0.00 0.00 83 1013.1
20260507154443 70 36 4.0 6.0 0.00 0.00 0.00 83 1013.1
20260507152944 70 350 5.0 8.0 0.00 0.00 0.00 84 1012.9
20260507152444 70 35 5.0 8.0 0.00 0.00 0.00 84 1012.9
20260507151944 70 43 5.0 9.0 0.00 0.00 0.00 84 1012.8
20260507151444 70 25 5.0 10.0 0.00 0.00 0.00 84 1012.8
20260507150944 70 65 5.0 10.0 0.00 0.00 0.00 84 1012.9
20260507150445 70 38 5.0 10.0 0.00 0.00 0.00 84 1012.9
20260507145944 70 1 5.0 9.0 0.00 0.00 0.00 85 1012.6
20260507145444 70 13 4.0 8.0 0.00 0.00 0.00 85 1012.8
20260507144944 70 338 4.0 8.0 0.00 0.00 0.00 85 1012.7
20260507144444 70 41 4.0 9.0 0.00 0.00 0.00 85 1012.7
20260507142939 70 49 5.0 10.0 0.00 0.00 0.00 85 1012.8
20260507141939 70 63 4.0 8.0 0.00 0.00 0.00 85 1012.6
20260507141433 70 20 4.0 7.0 0.00 0.00 0.00 86 1012.3
20260507140927 70 48 3.0 7.0 0.00 0.00 0.00 85 1012.6
20260507140427 70 356 3.0 7.0 0.00 0.00 0.00 85 1012.6
20260507135423 70 35 3.0 4.0 0.00 0.00 0.00 85 1012.5
20260507134921 70 339 3.0 4.0 0.00 0.00 0.00 85 1012.3
20260507133921 70 40 2.0 5.0 0.00 0.00 0.00 86 1012.3
20260507133425 70 34 2.0 5.0 0.00 0.00 0.00 87 1012.3
20260507132922 70 67 3.0 7.0 0.00 0.00 0.00 87 1012.3
20260507132424 69 27 3.0 7.0 0.00 0.00 0.00 87 1012.2
20260507131915 69 28 3.0 7.0 0.00 0.00 0.00 88 1012.1
20260507131410 69 345 3.0 7.0 0.00 0.00 0.00 88 1012.0
20260507130904 69 62 4.0 7.0 0.00 0.00 0.00 88 1011.9
20260507130403 69 30 4.0 8.0 0.00 0.00 0.00 88 1011.8
20260507125904 69 36 4.0 8.0 0.00 0.00 0.00 88 1011.9
20260507125404 69 23 3.0 8.0 0.00 0.00 0.00 88 1011.8
20260507124904 70 41 4.0 8.0 0.00 0.00 0.00 87 1011.7
20260507124404 70 42 4.0 8.0 0.00 0.00 0.00 86 1011.7
20260507123904 70 41 4.0 8.0 0.00 0.00 0.00 86 1011.7
20260507123404 70 36 3.0 6.0 0.00 0.00 0.00 85 1011.7
20260507122904 70 36 3.0 6.0 0.00 0.00 0.00 85 1011.6
20260507121904 70 25 4.0 8.0 0.00 0.00 0.00 85 1011.4
20260507121404 70 21 4.0 9.0 0.00 0.00 0.00 85 1011.3
20260507120905 70 18 4.0 9.0 0.00 0.00 0.00 85 1011.1
20260507115859 71 7 4.0 9.0 0.00 0.00 0.00 86 1011.0
20260507113853 71 47 4.0 10.0 0.00 0.00 0.00 86 1010.9
20260507113356 71 67 4.0 10.0 0.00 0.00 0.00 87 1010.7
20260507112355 71 317 3.0 7.0 0.00 0.00 0.00 86 1010.5
20260507111356 71 64 4.0 11.0 0.00 0.00 0.00 87 1010.3
20260507110854 71 46 4.0 11.0 0.00 0.00 0.00 86 1010.2
20260507110357 71 26 4.0 9.0 0.00 0.00 0.00 86 1010.3
20260507105853 71 50 3.0 9.0 0.00 0.00 0.00 86 1010.4
20260507105356 71 356 3.0 8.0 0.00 0.00 0.00 86 1010.5
20260507104848 71 56 3.0 8.0 0.00 0.00 0.00 86 1010.5
20260507104347 71 35 3.0 8.0 0.00 0.00 0.00 86 1010.5
20260507103841 71 45 4.0 9.0 0.00 0.00 0.00 87 1010.3
20260507103336 71 54 4.0 9.0 0.00 0.00 0.00 87 1010.2
20260507102836 71 61 4.0 8.0 0.00 0.00 0.00 87 1010.1
20260507102335 71 39 4.0 7.0 0.00 0.00 0.00 87 1010.0
20260507101836 71 34 4.0 9.0 0.00 0.00 0.00 87 1010.1
20260507101336 71 41 4.0 9.0 0.00 0.00 0.00 87 1010.3
20260507100835 71 65 4.0 8.0 0.00 0.00 0.00 87 1010.5
20260507100336 71 36 4.0 8.0 0.00 0.00 0.00 87 1010.6
20260507095836 71 121 4.0 8.0 0.00 0.00 0.00 87 1010.6
20260507095336 71 52 3.0 8.0 0.00 0.00 0.00 87 1010.7
20260507094336 72 57 4.0 9.0 0.00 0.00 0.00 87 1010.7
20260507093836 72 61 4.0 8.0 0.00 0.00 0.00 87 1010.6
20260507093336 72 0 4.0 8.0 0.00 0.00 0.00 86 1010.5
20260507092331 72 49 4.0 8.0 0.00 0.00 0.00 86 1010.3
20260507091826 72 56 4.0 8.0 0.00 0.00 0.00 87 1010.5
20260507091324 72 29 4.0 8.0 0.00 0.00 0.00 87 1010.4
20260507090826 73 55 4.0 8.0 0.00 0.00 0.00 87 1010.3
20260507090325 73 41 4.0 8.0 0.00 0.00 0.00 87 1010.2
20260507085826 73 263 3.0 6.0 0.00 0.00 0.00 86 1010.1
20260507084826 73 48 3.0 8.0 0.00 0.00 0.00 87 1010.3
20260507083827 73 76 4.0 8.0 0.00 0.00 0.00 88 1010.4
20260507083327 73 67 4.0 8.0 0.00 0.00 0.00 89 1010.4
20260507082837 73 42 4.0 8.0 0.00 0.00 0.00 89 1010.4
20260507082327 73 31 4.0 8.0 0.00 0.00 0.00 89 1010.1
20260507081824 73 30 4.0 10.0 0.00 0.00 0.00 90 1010.3
20260507081324 73 54 4.0 10.0 0.00 0.00 0.00 90 1010.2
20260507080823 74 42 4.0 9.0 0.00 0.00 0.00 90 1010.2
20260507080323 74 13 4.0 9.0 0.00 0.00 0.00 91 1010.2
20260507074820 74 312 4.0 9.0 0.00 0.00 0.00 92 1010.0
20260507074321 74 36 4.0 9.0 0.00 0.00 0.00 91 1009.9
20260507073820 75 21 3.0 6.0 0.00 0.00 0.00 91 1009.9
20260507072813 76 77 3.0 6.0 0.00 0.00 0.00 93 1010.0
20260507072314 77 19 3.0 6.0 0.00 0.00 0.00 95 1010.0
20260507071808 79 122 3.0 6.0 0.00 0.00 0.00 97 1010.0
20260507071309 79 138 3.0 6.0 0.00 0.00 0.00 97 1009.9
20260507070809 79 86 3.0 5.0 0.00 0.00 0.00 97 1009.9
20260507070308 79 141 3.0 6.0 0.00 0.00 0.00 97 1009.9
20260507065809 79 137 3.0 7.0 0.00 0.00 0.00 97 1010.0
20260507064808 79 134 3.0 7.0 0.00 0.00 0.00 97 1010.1
20260507063809 78 143 3.0 6.0 0.00 0.00 0.00 97 1010.0
20260507063309 79 124 3.0 6.0 0.00 0.00 0.00 97 1010.0
20260507062809 78 138 3.0 6.0 0.00 0.00 0.00 97 1010.1
20260507062309 78 122 2.0 5.0 0.00 0.00 0.00 97 1010.1
20260507061809 78 95 2.0 4.0 0.00 0.00 0.00 97 1010.2
20260507061309 79 113 2.0 5.0 0.00 0.00 0.00 97 1010.1
20260507060807 79 98 2.0 6.0 0.00 0.00 0.00 97 1010.1
20260507055804 79 143 2.0 6.0 0.00 0.00 0.00 96 1010.0
20260507055306 79 131 2.0 4.0 0.00 0.00 0.00 96 1010.0
20260507054804 79 91 2.0 5.0 0.00 0.00 0.00 96 1010.0
20260507054303 79 91 2.0 5.0 0.00 0.00 0.00 96 1010.0
20260507053804 79 46 2.0 6.0 0.00 0.00 0.00 96 1010.0
20260507053304 79 85 3.0 6.0 0.00 0.00 0.00 96 1010.0
20260507052804 79 117 2.0 5.0 0.00 0.00 0.00 95 1010.1
20260507052306 79 110 2.0 5.0 0.00 0.00 0.00 95 1010.1
20260507051804 79 121 2.0 5.0 0.00 0.00 0.00 95 1010.2
20260507051304 79 108 2.0 5.0 0.00 0.00 0.00 95 1010.1
20260507050805 79 94 2.0 5.0 0.00 0.00 0.00 95 1010.0
20260507050305 79 78 2.0 4.0 0.00 0.00 0.00 95 1010.1
20260507045302 79 85 2.0 6.0 0.00 0.00 0.00 95 1010.1
20260507044758 79 84 2.0 6.0 0.00 0.00 0.00 95 1009.9
20260507043756 79 45 3.0 5.0 0.00 0.00 0.00 95 1009.9
20260507043256 79 97 3.0 6.0 0.00 0.00 0.00 95 1009.8
20260507042756 79 118 3.0 6.0 0.00 0.00 0.00 95 1009.8
20260507042256 79 127 2.0 5.0 0.00 0.00 0.00 95 1009.8
20260507041256 79 114 2.0 6.0 0.00 0.00 0.00 95 1009.7
20260507040756 79 107 3.0 7.0 0.00 0.00 0.00 95 1009.7
20260507035756 79 138 3.0 7.0 0.00 0.00 0.00 95 1009.5
20260507035256 79 108 3.0 7.0 0.00 0.00 0.00 95 1009.4
20260507034757 79 99 3.0 7.0 0.00 0.00 0.00 95 1009.4
20260507033252 79 97 3.0 8.0 0.00 0.00 0.00 94 1009.2
20260507032752 79 83 4.0 8.0 0.00 0.00 0.00 94 1009.0
20260507032252 79 109 3.0 8.0 0.00 0.00 0.00 94 1009.0
20260507031752 79 145 3.0 6.0 0.00 0.00 0.00 94 1008.9
20260507031253 79 125 3.0 7.0 0.00 0.00 0.00 94 1008.8
20260507030752 79 114 3.0 7.0 0.00 0.00 0.00 94 1008.8
20260507030252 79 128 3.0 6.0 0.00 0.00 0.00 94 1008.7
20260507025753 79 127 3.0 6.0 0.00 0.00 0.00 94 1008.6